Year,Month,Day,Hour,Minute,Value (Times are PST for temperature in C)
2018,12,05,00,00,-0.90
2018,12,05,00,01,-0.90
2018,12,05,00,02,-0.80
2018,12,05,00,03,-0.80
2018,12,05,00,04,-0.80
2018,12,05,00,05,-0.80
2018,12,05,00,06,-0.80
2018,12,05,00,07,-0.80
2018,12,05,00,08,-0.70
2018,12,05,00,09,-0.70
2018,12,05,00,10,-0.70
2018,12,05,00,11,-0.70
2018,12,05,00,12,-0.60
2018,12,05,00,13,-0.60
2018,12,05,00,14,-0.60
2018,12,05,00,15,-0.60
2018,12,05,00,16,-0.70
2018,12,05,00,17,-0.70
2018,12,05,00,18,-0.70
2018,12,05,00,19,-0.80
2018,12,05,00,20,-0.80
2018,12,05,00,21,-0.80
2018,12,05,00,22,-0.90
2018,12,05,00,23,-0.90
2018,12,05,00,24,-0.90
2018,12,05,00,25,-0.90
2018,12,05,00,26,-1.00
2018,12,05,00,27,-1.00
2018,12,05,00,28,-1.00
2018,12,05,00,29,-1.00
2018,12,05,00,30,-1.10
2018,12,05,00,31,-1.10
2018,12,05,00,32,-1.10
2018,12,05,00,33,-1.10
2018,12,05,00,34,-1.10
2018,12,05,00,35,-1.10
2018,12,05,00,36,-1.10
2018,12,05,00,37,-1.10
2018,12,05,00,38,-1.10
2018,12,05,00,39,-1.10
2018,12,05,00,40,-1.20
2018,12,05,00,41,-1.20
2018,12,05,00,42,-1.20
2018,12,05,00,43,-1.20
2018,12,05,00,44,-1.20
2018,12,05,00,45,-1.20
2018,12,05,00,46,-1.20
2018,12,05,00,47,-1.20
2018,12,05,00,48,-1.20
2018,12,05,00,49,-1.20
2018,12,05,00,50,-1.20
2018,12,05,00,51,-1.20
2018,12,05,00,52,-1.20
2018,12,05,00,53,-1.20
2018,12,05,00,54,-1.20
2018,12,05,00,55,-1.10
2018,12,05,00,56,-1.10
2018,12,05,00,57,-1.10
2018,12,05,00,58,-1.10
2018,12,05,00,59,-1.00
2018,12,05,01,00,-1.00
2018,12,05,01,01,-1.00
2018,12,05,01,02,-1.00
2018,12,05,01,03,-1.00
2018,12,05,01,04,-1.00
2018,12,05,01,05,-1.00
2018,12,05,01,06,-1.00
2018,12,05,01,07,-0.90
2018,12,05,01,08,-0.90
2018,12,05,01,09,-0.90
2018,12,05,01,10,-0.80
2018,12,05,01,11,-0.80
2018,12,05,01,12,-0.80
2018,12,05,01,13,-0.80
2018,12,05,01,14,-0.80
2018,12,05,01,15,-0.80
2018,12,05,01,16,-0.80
2018,12,05,01,17,-0.80
2018,12,05,01,18,-0.80
2018,12,05,01,19,-0.80
2018,12,05,01,20,-0.80
2018,12,05,01,21,-0.80
2018,12,05,01,22,-0.80
2018,12,05,01,23,-0.80
2018,12,05,01,24,-0.80
2018,12,05,01,25,-0.80
2018,12,05,01,26,-0.80
2018,12,05,01,27,-0.80
2018,12,05,01,28,-0.80
2018,12,05,01,29,-0.80
2018,12,05,01,30,-0.80
2018,12,05,01,31,-0.90
2018,12,05,01,32,-0.90
2018,12,05,01,33,-0.90
2018,12,05,01,34,-0.90
2018,12,05,01,35,-0.90
2018,12,05,01,36,-0.90
2018,12,05,01,37,-0.90
2018,12,05,01,38,-0.90
2018,12,05,01,39,-0.90
2018,12,05,01,40,-0.90
2018,12,05,01,41,-0.90
2018,12,05,01,42,-1.00
2018,12,05,01,43,-1.00
2018,12,05,01,44,-1.00
2018,12,05,01,45,-1.00
2018,12,05,01,46,-1.00
2018,12,05,01,47,-1.10
2018,12,05,01,48,-1.10
2018,12,05,01,49,-1.10
2018,12,05,01,50,-1.10
2018,12,05,01,51,-1.10
2018,12,05,01,52,-1.10
2018,12,05,01,53,-1.20
2018,12,05,01,54,-1.20
2018,12,05,01,55,-1.20
2018,12,05,01,56,-1.20
2018,12,05,01,57,-1.20
2018,12,05,01,58,-1.30
2018,12,05,01,59,-1.30
2018,12,05,02,00,-1.30
2018,12,05,02,01,-1.30
2018,12,05,02,02,-1.30
2018,12,05,02,03,-1.20
2018,12,05,02,04,-1.20
2018,12,05,02,05,-1.20
2018,12,05,02,06,-1.10
2018,12,05,02,07,-1.10
2018,12,05,02,08,-1.10
2018,12,05,02,09,-1.10
2018,12,05,02,10,-1.00
2018,12,05,02,11,-1.00
2018,12,05,02,12,-1.00
2018,12,05,02,13,-1.00
2018,12,05,02,14,-1.10
2018,12,05,02,15,-1.10
2018,12,05,02,16,-1.10
2018,12,05,02,17,-1.10
2018,12,05,02,18,-1.00
2018,12,05,02,19,-1.10
2018,12,05,02,20,-1.00
2018,12,05,02,21,-1.00
2018,12,05,02,22,-1.00
2018,12,05,02,23,-1.10
2018,12,05,02,24,-1.10
2018,12,05,02,25,-1.10
2018,12,05,02,26,-1.20
2018,12,05,02,27,-1.20
2018,12,05,02,28,-1.30
2018,12,05,02,29,-1.40
2018,12,05,02,30,-1.40
2018,12,05,02,31,-1.50
2018,12,05,02,32,-1.50
2018,12,05,02,33,-1.60
2018,12,05,02,34,-1.60
2018,12,05,02,35,-1.60
2018,12,05,02,36,-1.60
2018,12,05,02,37,-1.60
2018,12,05,02,38,-1.60
2018,12,05,02,39,-1.60
2018,12,05,02,40,-1.60
2018,12,05,02,41,-1.60
2018,12,05,02,42,-1.60
2018,12,05,02,43,-1.60
2018,12,05,02,44,-1.70
2018,12,05,02,45,-1.70
2018,12,05,02,46,-1.60
2018,12,05,02,47,-1.60
2018,12,05,02,48,-1.60
2018,12,05,02,49,-1.60
2018,12,05,02,50,-1.60
2018,12,05,02,51,-1.60
2018,12,05,02,52,-1.60
2018,12,05,02,53,-1.60
2018,12,05,02,54,-1.60
2018,12,05,02,55,-1.60
2018,12,05,02,56,-1.70
2018,12,05,02,57,-1.70
2018,12,05,02,58,-1.70
2018,12,05,02,59,-1.70
2018,12,05,03,00,-1.70
2018,12,05,03,01,-1.70
2018,12,05,03,02,-1.70
2018,12,05,03,03,-1.70
2018,12,05,03,04,-1.70
2018,12,05,03,05,-1.70
2018,12,05,03,06,-1.70
2018,12,05,03,07,-1.70
2018,12,05,03,08,-1.70
2018,12,05,03,09,-1.70
2018,12,05,03,10,-1.60
2018,12,05,03,11,-1.60
2018,12,05,03,12,-1.50
2018,12,05,03,13,-1.50
2018,12,05,03,14,-1.50
2018,12,05,03,15,-1.50
2018,12,05,03,16,-1.50
2018,12,05,03,17,-1.50
2018,12,05,03,18,-1.60
2018,12,05,03,19,-1.60
2018,12,05,03,20,-1.60
2018,12,05,03,21,-1.60
2018,12,05,03,22,-1.60
2018,12,05,03,23,-1.60
2018,12,05,03,24,-1.60
2018,12,05,03,25,-1.60
2018,12,05,03,26,-1.60
2018,12,05,03,27,-1.60
2018,12,05,03,28,-1.60
2018,12,05,03,29,-1.60
2018,12,05,03,30,-1.60
2018,12,05,03,31,-1.60
2018,12,05,03,32,-1.60
2018,12,05,03,33,-1.60
2018,12,05,03,34,-1.60
2018,12,05,03,35,-1.50
2018,12,05,03,36,-1.50
2018,12,05,03,37,-1.50
2018,12,05,03,38,-1.50
2018,12,05,03,39,-1.40
2018,12,05,03,40,-1.40
2018,12,05,03,41,-1.40
2018,12,05,03,42,-1.40
2018,12,05,03,43,-1.40
2018,12,05,03,44,-1.40
2018,12,05,03,45,-1.40
2018,12,05,03,46,-1.40
2018,12,05,03,47,-1.40
2018,12,05,03,48,-1.40
2018,12,05,03,49,-1.40
2018,12,05,03,50,-1.40
2018,12,05,03,51,-1.40
2018,12,05,03,52,-1.30
2018,12,05,03,53,-1.30
2018,12,05,03,54,-1.30
2018,12,05,03,55,-1.30
2018,12,05,03,56,-1.30
2018,12,05,03,57,-1.30
2018,12,05,03,58,-1.30
2018,12,05,03,59,-1.30
2018,12,05,04,00,-1.30
2018,12,05,04,01,-1.30
2018,12,05,04,02,-1.20
2018,12,05,04,03,-1.20
2018,12,05,04,04,-1.20
2018,12,05,04,05,-1.20
2018,12,05,04,06,-1.20
2018,12,05,04,07,-1.20
2018,12,05,04,08,-1.20
2018,12,05,04,09,-1.20
2018,12,05,04,10,-1.20
2018,12,05,04,11,-1.20
2018,12,05,04,12,-1.20
2018,12,05,04,13,-1.30
2018,12,05,04,14,-1.30
2018,12,05,04,15,-1.30
2018,12,05,04,16,-1.40
2018,12,05,04,17,-1.50
2018,12,05,04,18,-1.60
2018,12,05,04,19,-1.60
2018,12,05,04,20,-1.70
2018,12,05,04,21,-1.80
2018,12,05,04,22,-1.80
2018,12,05,04,23,-1.90
2018,12,05,04,24,-2.00
2018,12,05,04,25,-2.00
2018,12,05,04,26,-2.10
2018,12,05,04,27,-2.20
2018,12,05,04,28,-2.20
2018,12,05,04,29,-2.20
2018,12,05,04,30,-2.20
2018,12,05,04,31,-2.20
2018,12,05,04,32,-2.20
2018,12,05,04,33,-2.30
2018,12,05,04,34,-2.20
2018,12,05,04,35,-2.20
2018,12,05,04,36,-2.20
2018,12,05,04,37,-2.20
2018,12,05,04,38,-2.20
2018,12,05,04,39,-2.20
2018,12,05,04,40,-2.20
2018,12,05,04,41,-2.30
2018,12,05,04,42,-2.30
2018,12,05,04,43,-2.30
2018,12,05,04,44,-2.40
2018,12,05,04,45,-2.40
2018,12,05,04,46,-2.50
2018,12,05,04,47,-2.60
2018,12,05,04,48,-2.60
2018,12,05,04,49,-2.60
2018,12,05,04,50,-2.60
2018,12,05,04,51,-2.60
2018,12,05,04,52,-2.70
2018,12,05,04,53,-2.70
2018,12,05,04,54,-2.70
2018,12,05,04,55,-2.70
2018,12,05,04,56,-2.70
2018,12,05,04,57,-2.70
2018,12,05,04,58,-2.70
2018,12,05,04,59,-2.60
2018,12,05,05,00,-2.60
2018,12,05,05,01,-2.60
2018,12,05,05,02,-2.60
2018,12,05,05,03,-2.60
2018,12,05,05,04,-2.60
2018,12,05,05,05,-2.60
2018,12,05,05,06,-2.60
2018,12,05,05,07,-2.70
2018,12,05,05,08,-2.70
2018,12,05,05,09,-2.70
2018,12,05,05,10,-2.70
2018,12,05,05,11,-2.80
2018,12,05,05,12,-2.80
2018,12,05,05,13,-2.80
2018,12,05,05,14,-2.90
2018,12,05,05,15,-2.90
2018,12,05,05,16,-3.00
2018,12,05,05,17,-3.00
2018,12,05,05,18,-3.00
2018,12,05,05,19,-3.10
2018,12,05,05,20,-3.10
2018,12,05,05,21,-3.10
2018,12,05,05,22,-3.10
2018,12,05,05,23,-3.20
2018,12,05,05,24,-3.20
2018,12,05,05,25,-3.20
2018,12,05,05,26,-3.20
2018,12,05,05,27,-3.30
2018,12,05,05,28,-3.30
2018,12,05,05,29,-3.30
2018,12,05,05,30,-3.30
2018,12,05,05,31,-3.30
2018,12,05,05,32,-3.30
2018,12,05,05,33,-3.30
2018,12,05,05,34,-3.20
2018,12,05,05,35,-3.20
2018,12,05,05,36,-3.10
2018,12,05,05,37,-3.00
2018,12,05,05,38,-3.00
2018,12,05,05,39,-2.90
2018,12,05,05,40,-2.90
2018,12,05,05,41,-2.90
2018,12,05,05,42,-2.90
2018,12,05,05,43,-2.90
2018,12,05,05,44,-2.90
2018,12,05,05,45,-3.00
2018,12,05,05,46,-3.00
2018,12,05,05,47,-3.00
2018,12,05,05,48,-3.10
2018,12,05,05,49,-3.10
2018,12,05,05,50,-3.10
2018,12,05,05,51,-3.10
2018,12,05,05,52,-3.20
2018,12,05,05,53,-3.20
2018,12,05,05,54,-3.20
2018,12,05,05,55,-3.20
2018,12,05,05,56,-3.30
2018,12,05,05,57,-3.30
2018,12,05,05,58,-3.30
2018,12,05,05,59,-3.30
2018,12,05,06,00,-3.30
2018,12,05,06,01,-3.40
2018,12,05,06,02,-3.40
2018,12,05,06,03,-3.40
2018,12,05,06,04,-3.40
2018,12,05,06,05,-3.40
2018,12,05,06,06,-3.40
2018,12,05,06,07,-3.40
2018,12,05,06,08,-3.40
2018,12,05,06,09,-3.50
2018,12,05,06,10,-3.50
2018,12,05,06,11,-3.50
2018,12,05,06,12,-3.60
2018,12,05,06,13,-3.60
2018,12,05,06,14,-3.60
2018,12,05,06,15,-3.60
2018,12,05,06,16,-3.60
2018,12,05,06,17,-3.50
2018,12,05,06,18,-3.50
2018,12,05,06,19,-3.50
2018,12,05,06,20,-3.50
2018,12,05,06,21,-3.50
2018,12,05,06,22,-3.50
2018,12,05,06,23,-3.60
2018,12,05,06,24,-3.60
2018,12,05,06,25,-3.60
2018,12,05,06,26,-3.60
2018,12,05,06,27,-3.60
2018,12,05,06,28,-3.60
2018,12,05,06,29,-3.60
2018,12,05,06,30,-3.60
2018,12,05,06,31,-3.70
2018,12,05,06,32,-3.70
2018,12,05,06,33,-3.70
2018,12,05,06,34,-3.60
2018,12,05,06,35,-3.60
2018,12,05,06,36,-3.60
2018,12,05,06,37,-3.60
2018,12,05,06,38,-3.60
2018,12,05,06,39,-3.60
2018,12,05,06,40,-3.70
2018,12,05,06,41,-3.70
2018,12,05,06,42,-3.70
2018,12,05,06,43,-3.70
2018,12,05,06,44,-3.70
2018,12,05,06,45,-3.80
2018,12,05,06,46,-3.80
2018,12,05,06,47,-3.80
2018,12,05,06,48,-3.80
2018,12,05,06,49,-3.80
2018,12,05,06,50,-3.80
2018,12,05,06,51,-3.80
2018,12,05,06,52,-3.80
2018,12,05,06,53,-3.80
2018,12,05,06,54,-3.80
2018,12,05,06,55,-3.90
2018,12,05,06,56,-3.90
2018,12,05,06,57,-3.90
2018,12,05,06,58,-3.90
2018,12,05,06,59,-3.90
2018,12,05,07,00,-3.90
2018,12,05,07,01,-3.90
2018,12,05,07,02,-3.90
2018,12,05,07,03,-3.90
2018,12,05,07,04,-3.90
2018,12,05,07,05,-3.90
2018,12,05,07,06,-3.80
2018,12,05,07,07,-3.80
2018,12,05,07,08,-3.70
2018,12,05,07,09,-3.70
2018,12,05,07,10,-3.70
2018,12,05,07,11,-3.70
2018,12,05,07,12,-3.70
2018,12,05,07,13,-3.80
2018,12,05,07,14,-3.80
2018,12,05,07,15,-3.80
2018,12,05,07,16,-3.80
2018,12,05,07,17,-3.80
2018,12,05,07,18,-3.80
2018,12,05,07,19,-3.80
2018,12,05,07,20,-3.80
2018,12,05,07,21,-3.80
2018,12,05,07,22,-3.80
2018,12,05,07,23,-3.80
2018,12,05,07,24,-3.80
2018,12,05,07,25,-3.80
2018,12,05,07,26,-3.80
2018,12,05,07,27,-3.80
2018,12,05,07,28,-3.80
2018,12,05,07,29,-3.80
2018,12,05,07,30,-3.80
2018,12,05,07,31,-3.80
2018,12,05,07,32,-3.80
2018,12,05,07,33,-3.80
2018,12,05,07,34,-3.80
2018,12,05,07,35,-3.80
2018,12,05,07,36,-3.90
2018,12,05,07,37,-3.90
2018,12,05,07,38,-3.90
2018,12,05,07,39,-3.90
2018,12,05,07,40,-4.00
2018,12,05,07,41,-4.00
2018,12,05,07,42,-4.00
2018,12,05,07,43,-4.00
2018,12,05,07,44,-4.00
2018,12,05,07,45,-4.00
2018,12,05,07,46,-4.10
2018,12,05,07,47,-4.10
2018,12,05,07,48,-4.10
2018,12,05,07,49,-4.20
2018,12,05,07,50,-4.20
2018,12,05,07,51,-4.20
2018,12,05,07,52,-4.10
2018,12,05,07,53,-4.10
2018,12,05,07,54,-4.10
2018,12,05,07,55,-4.10
2018,12,05,07,56,-4.10
2018,12,05,07,57,-4.10
2018,12,05,07,58,-4.10
2018,12,05,07,59,-4.20
2018,12,05,08,00,-4.20
2018,12,05,08,01,-4.20
2018,12,05,08,02,-4.20
2018,12,05,08,03,-4.20
2018,12,05,08,04,-4.20
2018,12,05,08,05,-4.20
2018,12,05,08,06,-4.20
2018,12,05,08,07,-4.20
2018,12,05,08,08,-4.10
2018,12,05,08,09,-4.10
2018,12,05,08,10,-4.10
2018,12,05,08,11,-4.10
2018,12,05,08,12,-4.10
2018,12,05,08,13,-4.00
2018,12,05,08,14,-4.00
2018,12,05,08,15,-3.90
2018,12,05,08,16,-3.90
2018,12,05,08,17,-3.90
2018,12,05,08,18,-4.00
2018,12,05,08,19,-4.00
2018,12,05,08,20,-4.00
2018,12,05,08,21,-4.10
2018,12,05,08,22,-4.00
2018,12,05,08,23,-4.00
2018,12,05,08,24,-3.90
2018,12,05,08,25,-3.90
2018,12,05,08,26,-3.90
2018,12,05,08,27,-3.90
2018,12,05,08,28,-3.90
2018,12,05,08,29,-3.80
2018,12,05,08,30,-3.80
2018,12,05,08,31,-3.80
2018,12,05,08,32,-3.80
2018,12,05,08,33,-3.80
2018,12,05,08,34,-3.80
2018,12,05,08,35,-3.70
2018,12,05,08,36,-3.70
2018,12,05,08,37,-3.70
2018,12,05,08,38,-3.70
2018,12,05,08,39,-3.70
2018,12,05,08,40,-3.70
2018,12,05,08,41,-3.70
2018,12,05,08,42,-3.70
2018,12,05,08,43,-3.60
2018,12,05,08,44,-3.60
2018,12,05,08,45,-3.60
2018,12,05,08,46,-3.60
2018,12,05,08,47,-3.60
2018,12,05,08,48,-3.50
2018,12,05,08,49,-3.50
2018,12,05,08,50,-3.50
2018,12,05,08,51,-3.50
2018,12,05,08,52,-3.50
2018,12,05,08,53,-3.50
2018,12,05,08,54,-3.50
2018,12,05,08,55,-3.50
2018,12,05,08,56,-3.40
2018,12,05,08,57,-3.40
2018,12,05,08,58,-3.40
2018,12,05,08,59,-3.40
2018,12,05,09,00,-3.30
2018,12,05,09,01,-3.30
2018,12,05,09,02,-3.30
2018,12,05,09,03,-3.20
2018,12,05,09,04,-3.20
2018,12,05,09,05,-3.20
2018,12,05,09,06,-3.10
2018,12,05,09,07,-3.10
2018,12,05,09,08,-3.10
2018,12,05,09,09,-3.00
2018,12,05,09,10,-3.00
2018,12,05,09,11,-2.90
2018,12,05,09,12,-2.90
2018,12,05,09,13,-2.80
2018,12,05,09,14,-2.80
2018,12,05,09,15,-2.80
2018,12,05,09,16,-2.70
2018,12,05,09,17,-2.60
2018,12,05,09,18,-2.60
2018,12,05,09,19,-2.50
2018,12,05,09,20,-2.50
2018,12,05,09,21,-2.40
2018,12,05,09,22,-2.40
2018,12,05,09,23,-2.30
2018,12,05,09,24,-2.30
2018,12,05,09,25,-2.20
2018,12,05,09,26,-2.20
2018,12,05,09,27,-2.10
2018,12,05,09,28,-2.00
2018,12,05,09,29,-2.00
2018,12,05,09,30,-1.90
2018,12,05,09,31,-1.90
2018,12,05,09,32,-1.80
2018,12,05,09,33,-1.70
2018,12,05,09,34,-1.70
2018,12,05,09,35,-1.60
2018,12,05,09,36,-1.60
2018,12,05,09,37,-1.50
2018,12,05,09,38,-1.50
2018,12,05,09,39,-1.40
2018,12,05,09,40,-1.30
2018,12,05,09,41,-1.30
2018,12,05,09,42,-1.20
2018,12,05,09,43,-1.20
2018,12,05,09,44,-1.20
2018,12,05,09,45,-1.20
2018,12,05,09,46,-1.10
2018,12,05,09,47,-1.00
2018,12,05,09,48,-1.00
2018,12,05,09,49,-0.90
2018,12,05,09,50,-0.80
2018,12,05,09,51,-0.70
2018,12,05,09,52,-0.50
2018,12,05,09,53,-0.40
2018,12,05,09,54,-0.30
2018,12,05,09,55,-0.20
2018,12,05,09,56,-0.10
2018,12,05,09,57,0.00
2018,12,05,09,58,0.10
2018,12,05,09,59,0.10
2018,12,05,10,00,0.20
2018,12,05,10,01,0.30
2018,12,05,10,02,0.40
2018,12,05,10,03,0.50
2018,12,05,10,04,0.60
2018,12,05,10,05,0.70
2018,12,05,10,06,0.80
2018,12,05,10,07,0.80
2018,12,05,10,08,0.90
2018,12,05,10,09,1.00
2018,12,05,10,10,1.10
2018,12,05,10,11,1.10
2018,12,05,10,12,1.10
2018,12,05,10,13,1.20
2018,12,05,10,14,1.20
2018,12,05,10,15,1.20
2018,12,05,10,16,1.20
2018,12,05,10,17,1.20
2018,12,05,10,18,1.20
2018,12,05,10,19,1.20
2018,12,05,10,20,1.20
2018,12,05,10,21,1.20
2018,12,05,10,22,1.20
2018,12,05,10,23,1.20
2018,12,05,10,24,1.20
2018,12,05,10,25,1.20
2018,12,05,10,26,1.30
2018,12,05,10,27,1.40
2018,12,05,10,28,1.50
2018,12,05,10,29,1.70
2018,12,05,10,30,1.80
2018,12,05,10,31,1.80
2018,12,05,10,32,1.90
2018,12,05,10,33,1.90
2018,12,05,10,34,1.90
2018,12,05,10,35,1.90
2018,12,05,10,36,2.00
2018,12,05,10,37,2.00
2018,12,05,10,38,2.00
2018,12,05,10,39,2.10
2018,12,05,10,40,2.20
2018,12,05,10,41,2.20
2018,12,05,10,42,2.30
2018,12,05,10,43,2.40
2018,12,05,10,44,2.50
2018,12,05,10,45,2.50
2018,12,05,10,46,2.60
2018,12,05,10,47,2.70
2018,12,05,10,48,2.80
2018,12,05,10,49,2.90
2018,12,05,10,50,3.00
2018,12,05,10,51,3.20
2018,12,05,10,52,3.30
2018,12,05,10,53,3.40
2018,12,05,10,54,3.50
2018,12,05,10,55,3.60
2018,12,05,10,56,3.60
2018,12,05,10,57,3.70
2018,12,05,10,58,3.80
2018,12,05,10,59,3.80
2018,12,05,11,00,3.80
2018,12,05,11,01,3.80
2018,12,05,11,02,3.80
2018,12,05,11,03,3.80
2018,12,05,11,04,3.90
2018,12,05,11,05,3.90
2018,12,05,11,06,3.90
2018,12,05,11,07,4.00
2018,12,05,11,08,4.00
2018,12,05,11,09,4.00
2018,12,05,11,10,4.10
2018,12,05,11,11,4.10
2018,12,05,11,12,4.20
2018,12,05,11,13,4.20
2018,12,05,11,14,4.20
2018,12,05,11,15,4.10
2018,12,05,11,16,4.00
2018,12,05,11,17,3.90
2018,12,05,11,18,3.90
2018,12,05,11,19,3.90
2018,12,05,11,20,3.80
2018,12,05,11,21,3.80
2018,12,05,11,22,3.80
2018,12,05,11,23,3.70
2018,12,05,11,24,3.70
2018,12,05,11,25,3.70
2018,12,05,11,26,3.70
2018,12,05,11,27,3.70
2018,12,05,11,28,3.70
2018,12,05,11,29,3.80
2018,12,05,11,30,3.90
2018,12,05,11,31,3.90
2018,12,05,11,32,4.00
2018,12,05,11,33,4.10
2018,12,05,11,34,4.10
2018,12,05,11,35,4.20
2018,12,05,11,36,4.30
2018,12,05,11,37,4.30
2018,12,05,11,38,4.30
2018,12,05,11,39,4.30
2018,12,05,11,40,4.30
2018,12,05,11,41,4.30
2018,12,05,11,42,4.40
2018,12,05,11,43,4.40
2018,12,05,11,44,4.50
2018,12,05,11,45,4.50
2018,12,05,11,46,4.40
2018,12,05,11,47,4.40
2018,12,05,11,48,4.40
2018,12,05,11,49,4.30
2018,12,05,11,50,4.30
2018,12,05,11,51,4.30
2018,12,05,11,52,4.20
2018,12,05,11,53,4.20
2018,12,05,11,54,4.20
2018,12,05,11,55,4.10
2018,12,05,11,56,4.10
2018,12,05,11,57,4.20
2018,12,05,11,58,4.20
2018,12,05,11,59,4.30
2018,12,05,12,00,4.30
2018,12,05,12,01,4.30
2018,12,05,12,02,4.40
2018,12,05,12,03,4.40
2018,12,05,12,04,4.40
2018,12,05,12,05,4.40
2018,12,05,12,06,4.40
2018,12,05,12,07,4.40
2018,12,05,12,08,4.40
2018,12,05,12,09,4.30
2018,12,05,12,10,4.40
2018,12,05,12,11,4.50
2018,12,05,12,12,4.50
2018,12,05,12,13,4.50
2018,12,05,12,14,4.50
2018,12,05,12,15,4.60
2018,12,05,12,16,4.60
2018,12,05,12,17,4.60
2018,12,05,12,18,4.60
2018,12,05,12,19,4.60
2018,12,05,12,20,4.70
2018,12,05,12,21,4.70
2018,12,05,12,22,4.80
2018,12,05,12,23,4.90
2018,12,05,12,24,5.00
2018,12,05,12,25,5.00
2018,12,05,12,26,5.00
2018,12,05,12,27,5.10
2018,12,05,12,28,5.10
2018,12,05,12,29,5.10
2018,12,05,12,30,5.00
2018,12,05,12,31,5.00
2018,12,05,12,32,4.90
2018,12,05,12,33,4.80
2018,12,05,12,34,4.70
2018,12,05,12,35,4.70
2018,12,05,12,36,4.50
2018,12,05,12,37,4.40
2018,12,05,12,38,4.30
2018,12,05,12,39,4.20
2018,12,05,12,40,4.10
2018,12,05,12,41,4.00
2018,12,05,12,42,3.90
2018,12,05,12,43,3.90
2018,12,05,12,44,3.80
2018,12,05,12,45,3.80
2018,12,05,12,46,3.70
2018,12,05,12,47,3.70
2018,12,05,12,48,3.70
2018,12,05,12,49,3.70
2018,12,05,12,50,3.60
2018,12,05,12,51,3.60
2018,12,05,12,52,3.60
2018,12,05,12,53,3.60
2018,12,05,12,54,3.60
2018,12,05,12,55,3.60
2018,12,05,12,56,3.60
2018,12,05,12,57,3.60
2018,12,05,12,58,3.60
2018,12,05,12,59,3.60
2018,12,05,13,00,3.70
2018,12,05,13,01,3.70
2018,12,05,13,02,3.70
2018,12,05,13,03,3.70
2018,12,05,13,04,3.70
2018,12,05,13,05,3.80
2018,12,05,13,06,3.80
2018,12,05,13,07,3.90
2018,12,05,13,08,4.00
2018,12,05,13,09,4.20
2018,12,05,13,10,4.40
2018,12,05,13,11,4.60
2018,12,05,13,12,4.70
2018,12,05,13,13,4.90
2018,12,05,13,14,5.00
2018,12,05,13,15,5.20
2018,12,05,13,16,5.30
2018,12,05,13,17,5.30
2018,12,05,13,18,5.30
2018,12,05,13,19,5.40
2018,12,05,13,20,5.40
2018,12,05,13,21,5.50
2018,12,05,13,22,5.60
2018,12,05,13,23,5.60
2018,12,05,13,24,5.70
2018,12,05,13,25,5.70
2018,12,05,13,26,5.80
2018,12,05,13,27,5.90
2018,12,05,13,28,5.90
2018,12,05,13,29,5.90
2018,12,05,13,30,5.90
2018,12,05,13,31,6.00
2018,12,05,13,32,6.00
2018,12,05,13,33,6.00
2018,12,05,13,34,6.10
2018,12,05,13,35,6.10
2018,12,05,13,36,6.20
2018,12,05,13,37,6.20
2018,12,05,13,38,6.20
2018,12,05,13,39,6.20
2018,12,05,13,40,6.30
2018,12,05,13,41,6.30
2018,12,05,13,42,6.20
2018,12,05,13,43,6.20
2018,12,05,13,44,6.20
2018,12,05,13,45,6.20
2018,12,05,13,46,6.20
2018,12,05,13,47,6.20
2018,12,05,13,48,6.20
2018,12,05,13,49,6.20
2018,12,05,13,50,6.20
2018,12,05,13,51,6.20
2018,12,05,13,52,6.20
2018,12,05,13,53,6.20
2018,12,05,13,54,6.20
2018,12,05,13,55,6.20
2018,12,05,13,56,6.20
2018,12,05,13,57,6.20
2018,12,05,13,58,6.20
2018,12,05,13,59,6.20
2018,12,05,14,00,6.30
2018,12,05,14,01,6.30
2018,12,05,14,02,6.30
2018,12,05,14,03,6.30
2018,12,05,14,04,6.30
2018,12,05,14,05,6.40
2018,12,05,14,06,6.40
2018,12,05,14,07,6.40
2018,12,05,14,08,6.40
2018,12,05,14,09,6.50
2018,12,05,14,10,6.40
2018,12,05,14,11,6.40
2018,12,05,14,12,6.40
2018,12,05,14,13,6.40
2018,12,05,14,14,6.50
2018,12,05,14,15,6.50
2018,12,05,14,16,6.50
2018,12,05,14,17,6.50
2018,12,05,14,18,6.40
2018,12,05,14,19,6.40
2018,12,05,14,20,6.40
2018,12,05,14,21,6.30
2018,12,05,14,22,6.30
2018,12,05,14,23,6.20
2018,12,05,14,24,6.20
2018,12,05,14,25,6.20
2018,12,05,14,26,6.10
2018,12,05,14,27,6.00
2018,12,05,14,28,5.90
2018,12,05,14,29,5.80
2018,12,05,14,30,5.80
2018,12,05,14,31,5.70
2018,12,05,14,32,5.60
2018,12,05,14,33,5.50
2018,12,05,14,34,5.40
2018,12,05,14,35,5.30
2018,12,05,14,36,5.20
2018,12,05,14,37,5.20
2018,12,05,14,38,5.10
2018,12,05,14,39,5.00
2018,12,05,14,40,5.00
2018,12,05,14,41,4.90
2018,12,05,14,42,4.90
2018,12,05,14,43,4.90
2018,12,05,14,44,4.90
2018,12,05,14,45,4.90
2018,12,05,14,46,4.90
2018,12,05,14,47,4.90
2018,12,05,14,48,4.90
2018,12,05,14,49,5.00
2018,12,05,14,50,5.00
2018,12,05,14,51,5.00
2018,12,05,14,52,5.10
2018,12,05,14,53,5.10
2018,12,05,14,54,5.10
2018,12,05,14,55,5.10
2018,12,05,14,56,5.10
2018,12,05,14,57,5.10
2018,12,05,14,58,5.10
2018,12,05,14,59,5.10
2018,12,05,15,00,5.10
2018,12,05,15,01,5.10
2018,12,05,15,02,5.20
2018,12,05,15,03,5.20
2018,12,05,15,04,5.20
2018,12,05,15,05,5.20
2018,12,05,15,06,5.30
2018,12,05,15,07,5.30
2018,12,05,15,08,5.40
2018,12,05,15,09,5.50
2018,12,05,15,10,5.60
2018,12,05,15,11,5.70
2018,12,05,15,12,5.80
2018,12,05,15,13,5.80
2018,12,05,15,14,5.80
2018,12,05,15,15,5.80
2018,12,05,15,16,5.80
2018,12,05,15,17,5.80
2018,12,05,15,18,5.70
2018,12,05,15,19,5.60
2018,12,05,15,20,5.50
2018,12,05,15,21,5.40
2018,12,05,15,22,5.30
2018,12,05,15,23,5.30
2018,12,05,15,24,5.30
2018,12,05,15,25,5.20
2018,12,05,15,26,5.20
2018,12,05,15,27,5.20
2018,12,05,15,28,5.20
2018,12,05,15,29,5.20
2018,12,05,15,30,5.20
2018,12,05,15,31,5.30
2018,12,05,15,32,5.30
2018,12,05,15,33,5.40
2018,12,05,15,34,5.40
2018,12,05,15,35,5.50
2018,12,05,15,36,5.50
2018,12,05,15,37,5.50
2018,12,05,15,38,5.50
2018,12,05,15,39,5.60
2018,12,05,15,40,5.60
2018,12,05,15,41,5.60
2018,12,05,15,42,5.60
2018,12,05,15,43,5.50
2018,12,05,15,44,5.50
2018,12,05,15,45,5.40
2018,12,05,15,46,5.30
2018,12,05,15,47,5.20
2018,12,05,15,48,5.10
2018,12,05,15,49,4.90
2018,12,05,15,50,4.80
2018,12,05,15,51,4.70
2018,12,05,15,52,4.60
2018,12,05,15,53,4.40
2018,12,05,15,54,4.30
2018,12,05,15,55,4.20
2018,12,05,15,56,4.10
2018,12,05,15,57,4.00
2018,12,05,15,58,3.90
2018,12,05,15,59,3.80
2018,12,05,16,00,3.80
2018,12,05,16,01,3.70
2018,12,05,16,02,3.60
2018,12,05,16,03,3.50
2018,12,05,16,04,3.40
2018,12,05,16,05,3.30
2018,12,05,16,06,3.30
2018,12,05,16,07,3.20
2018,12,05,16,08,3.10
2018,12,05,16,09,3.00
2018,12,05,16,10,2.90
2018,12,05,16,11,2.80
2018,12,05,16,12,2.70
2018,12,05,16,13,2.70
2018,12,05,16,14,2.60
2018,12,05,16,15,2.50
2018,12,05,16,16,2.50
2018,12,05,16,17,2.40
2018,12,05,16,18,2.30
2018,12,05,16,19,2.30
2018,12,05,16,20,2.20
2018,12,05,16,21,2.20
2018,12,05,16,22,2.10
2018,12,05,16,23,2.10
2018,12,05,16,24,2.00
2018,12,05,16,25,1.90
2018,12,05,16,26,1.90
2018,12,05,16,27,1.80
2018,12,05,16,28,1.80
2018,12,05,16,29,1.70
2018,12,05,16,30,1.70
2018,12,05,16,31,1.60
2018,12,05,16,32,1.50
2018,12,05,16,33,1.50
2018,12,05,16,34,1.40
2018,12,05,16,35,1.40
2018,12,05,16,36,1.30
2018,12,05,16,37,1.30
2018,12,05,16,38,1.20
2018,12,05,16,39,1.10
2018,12,05,16,40,1.10
2018,12,05,16,41,1.00
2018,12,05,16,42,0.90
2018,12,05,16,43,0.90
2018,12,05,16,44,0.80
2018,12,05,16,45,0.80
2018,12,05,16,46,0.70
2018,12,05,16,47,0.70
2018,12,05,16,48,0.70
2018,12,05,16,49,0.60
2018,12,05,16,50,0.60
2018,12,05,16,51,0.60
2018,12,05,16,52,0.60
2018,12,05,16,53,0.50
2018,12,05,16,54,0.50
2018,12,05,16,55,0.50
2018,12,05,16,56,0.50
2018,12,05,16,57,0.50
2018,12,05,16,58,0.50
2018,12,05,16,59,0.40
2018,12,05,17,00,0.40
2018,12,05,17,01,0.40
2018,12,05,17,02,0.30
2018,12,05,17,03,0.30
2018,12,05,17,04,0.30
2018,12,05,17,05,0.20
2018,12,05,17,06,0.20
2018,12,05,17,07,0.20
2018,12,05,17,08,0.10
2018,12,05,17,09,0.10
2018,12,05,17,10,0.10
2018,12,05,17,11,0.00
2018,12,05,17,12,0.00
2018,12,05,17,13,-0.10
2018,12,05,17,14,-0.10
2018,12,05,17,15,-0.10
2018,12,05,17,16,-0.20
2018,12,05,17,17,-0.20
2018,12,05,17,18,-0.20
2018,12,05,17,19,-0.20
2018,12,05,17,20,-0.20
2018,12,05,17,21,-0.20
2018,12,05,17,22,-0.30
2018,12,05,17,23,-0.30
2018,12,05,17,24,-0.30
2018,12,05,17,25,-0.30
2018,12,05,17,26,-0.30
2018,12,05,17,27,-0.30
2018,12,05,17,28,-0.40
2018,12,05,17,29,-0.40
2018,12,05,17,30,-0.40
2018,12,05,17,31,-0.40
2018,12,05,17,32,-0.50
2018,12,05,17,33,-0.50
2018,12,05,17,34,-0.50
2018,12,05,17,35,-0.50
2018,12,05,17,36,-0.60
2018,12,05,17,37,-0.60
2018,12,05,17,38,-0.60